EW3359 Weather Reports


Display with metric or nautical units.
time (UTC)temp
F
wind
direction
speed
MPH
gust
MPH
rain 1hr
in
rain 24hr
in
rain mn
in
humidity
%
barometer
mb
20260906133032 87 157 0.0 7.0 0.00 0.00 0.00 39 1017.2
20260906131524 88 194 0.0 7.0 0.00 0.00 0.00 37 1017.4
20260906130022 88 219 0.0 6.0 0.00 0.00 0.00 36 1017.4
20260906124521 88 242 0.0 3.0 0.00 0.00 0.00 36 1017.6
20260906123033 87 232 0.0 3.0 0.00 0.00 0.00 37 1017.7
20260906121515 86 182 0.0 5.0 0.00 0.00 0.00 39 1017.7
20260906120012 86 176 0.0 4.0 0.00 0.00 0.00 38 1017.8
20260906114511 85 175 0.0 5.0 0.00 0.00 0.00 38 1018.1
20260906113012 85 202 0.0 5.0 0.00 0.00 0.00 40 1018.2
20260906111504 84 202 0.0 0.0 0.00 0.00 0.00 43 1018.5
20260906104605 82 198 0.0 0.0 0.00 0.00 0.00 41 1018.7
20260906103055 81 190 0.0 0.0 0.00 0.00 0.00 46 1018.9
20260906101551 80 183 0.0 0.0 0.00 0.00 0.00 49 1019.2
20260906100046 79 271 0.0 0.0 0.00 0.00 0.00 46 1019.5
20260906094542 79 144 0.0 0.0 0.00 0.00 0.00 48 1019.6
20260906093049 77 157 0.0 0.0 0.00 0.00 0.00 52 1020.0
20260906091534 77 133 0.0 0.0 0.00 0.00 0.00 53 1020.3
20260906090033 75 157 0.0 0.0 0.00 0.00 0.00 54 1020.5
20260906084527 75 161 0.0 0.0 0.00 0.00 0.00 55 1020.7
20260906083024 74 155 0.0 0.0 0.00 0.00 0.00 57 1020.8
20260906081541 72 168 0.0 0.0 0.00 0.00 0.00 60 1020.9
20260906080015 71 167 0.0 0.0 0.00 0.00 0.00 61 1021.2
20260906074510 71 162 0.0 0.0 0.00 0.00 0.00 63 1021.2
20260906073013 70 170 0.0 0.0 0.00 0.00 0.00 64 1021.3
20260906071501 69 170 0.0 0.0 0.00 0.00 0.00 65 1021.3
20260906070120 68 170 0.0 0.0 0.00 0.00 0.00 69 1021.6
20260906064554 67 174 0.0 0.0 0.00 0.00 0.00 68 1021.5
20260906063049 66 329 0.0 0.0 0.00 0.00 0.00 71 1021.5
20260906061558 65 329 0.0 0.0 0.00 0.00 0.00 74 1021.4
20260906060040 65 329 0.0 0.0 0.00 0.00 0.00 72 1021.3
20260906054535 63 329 0.0 0.0 0.00 0.00 0.00 75 1021.1
20260906053037 62 329 0.0 0.0 0.00 0.00 0.00 76 1021.0
20260906051531 62 329 0.0 0.0 0.00 0.00 0.00 75 1021.0
20260906050030 62 329 0.0 0.0 0.00 0.00 0.00 75 1020.8
20260906044527 62 303 0.0 0.0 0.00 0.00 0.00 73 1020.9
20260906043038 64 304 0.0 0.0 0.00 0.00 0.00 70 1020.8
20260906041525 64 330 0.0 0.0 0.00 0.00 0.00 72 1020.8
20260906040026 63 335 0.0 0.0 0.00 0.00 0.00 74 1020.8
20260906034527 63 335 0.0 0.0 0.00 0.00 0.00 74 1020.8
20260906033024 63 335 0.0 0.0 0.00 0.00 0.00 72 1020.8
20260906031521 63 335 0.0 0.0 0.00 0.00 0.00 73 1020.4
20260906030022 63 335 0.0 0.0 0.00 0.00 0.00 73 1020.6
20260906024517 64 335 0.0 0.0 0.00 0.00 0.00 71 1020.8
20260906023016 64 335 0.0 0.0 0.00 0.00 0.00 71 1021.0
20260906021514 65 335 0.0 0.0 0.00 0.00 0.00 69 1020.8
20260906020011 65 335 0.0 0.0 0.00 0.00 0.00 68 1020.7
20260906014513 65 335 0.0 0.0 0.00 0.00 0.00 69 1020.6
20260906013010 66 335 0.0 0.0 0.00 0.00 0.00 68 1020.4
20260906011506 67 335 0.0 0.0 0.00 0.00 0.00 66 1020.5
20260906010005 67 335 0.0 0.0 0.00 0.00 0.00 65 1020.4
20260906004505 67 336 0.0 0.0 0.00 0.00 0.00 66 1020.3
20260906003004 67 336 0.0 0.0 0.00 0.00 0.00 66 1020.4
20260906001504 68 336 0.0 0.0 0.00 0.00 0.00 65 1020.5
20260906000003 68 344 0.0 0.0 0.00 0.00 0.00 65 1020.4
20260905234501 67 9 0.0 0.0 0.00 0.00 0.00 66 1020.3
20260905233101 67 13 0.0 0.0 0.00 0.00 0.00 66 1020.2
20260905231558 69 13 0.0 0.0 0.00 0.00 0.00 62 1020.2
20260905230057 69 12 0.0 0.0 0.00 0.00 0.00 60 1020.2
20260905224605 69 13 0.0 0.0 0.00 0.00 0.00 63 1020.1
20260905223053 69 13 0.0 0.0 0.00 0.00 0.00 63 1020.0
20260905221551 70 13 0.0 0.0 0.00 0.00 0.00 61 1020.0
20260905220048 70 5 0.0 0.0 0.00 0.00 0.00 60 1019.9
20260905214547 71 360 0.0 0.0 0.00 0.00 0.00 61 1019.9
20260905213046 70 360 0.0 0.0 0.00 0.00 0.00 60 1019.7
20260905211545 71 360 0.0 0.0 0.00 0.00 0.00 60 1019.6
20260905210045 73 301 0.0 0.0 0.00 0.00 0.00 57 1019.7
20260905204545 73 336 0.0 0.0 0.00 0.00 0.00 58 1019.7
20260905203043 73 309 0.0 0.0 0.00 0.00 0.00 56 1019.3
20260905201540 74 312 0.0 0.0 0.00 0.00 0.00 56 1019.1
20260905200049 74 330 0.0 0.0 0.00 0.00 0.00 54 1018.8
20260905194536 75 348 0.0 6.0 0.00 0.00 0.00 54 1018.6
20260905193035 75 319 0.0 2.0 0.00 0.00 0.00 54 1018.5
20260905191537 75 339 0.0 3.0 0.00 0.00 0.00 52 1018.3
20260905190045 76 5 0.0 3.0 0.00 0.00 0.00 52 1018.1
20260905184539 76 227 0.0 3.0 0.00 0.00 0.00 51 1018.0
20260905183031 77 231 0.0 3.0 0.00 0.00 0.00 50 1017.6
20260905181531 77 225 0.0 3.0 0.00 0.00 0.00 49 1017.5
20260905180028 78 205 0.0 2.0 0.00 0.00 0.00 48 1017.3
20260905174529 78 234 0.0 4.0 0.00 0.00 0.00 48 1017.1
20260905173030 79 207 0.0 3.0 0.00 0.00 0.00 47 1017.1
20260905171531 80 194 0.0 4.0 0.00 0.00 0.00 45 1016.7
20260905170027 82 183 2.0 5.0 0.00 0.00 0.00 42 1016.5
20260905164533 83 198 0.0 1.0 0.00 0.00 0.00 39 1016.5
20260905163026 84 167 0.0 9.0 0.00 0.00 0.00 38 1016.4
20260905161525 84 177 0.0 9.0 0.00 0.00 0.00 39 1016.4
20260905160025 84 268 0.0 9.0 0.00 0.00 0.00 38 1016.4
20260905154525 85 224 0.0 9.0 0.00 0.00 0.00 37 1016.4
20260905153036 84 275 2.0 9.0 0.00 0.00 0.00 38 1016.3
20260905151524 85 252 0.0 10.0 0.00 0.00 0.00 37 1016.3
20260905150023 84 256 1.0 10.0 0.00 0.00 0.00 37 1016.2
20260905144523 85 299 2.0 9.0 0.00 0.00 0.00 37 1016.2
20260905143024 85 260 0.0 11.0 0.00 0.00 0.00 36 1016.0
20260905141524 86 265 1.0 5.0 0.00 0.00 0.00 35 1016.1
20260905140021 86 277 0.0 11.0 0.00 0.00 0.00 36 1016.2
20260905134524 86 161 2.0 10.0 0.00 0.00 0.00 35 1016.3